This is the latest recevied weather packets stored in our database for station/object TG8ARF-18. If no packets are shown the sender has not sent any weather packets the latest 1 day(s).
| Time | Temp. | Humidity | Pressure | Rain* | Wind** | Luminosity | Snow |
|---|---|---|---|---|---|---|---|
| 1778095216 | 23.33° C | 62% | 1015 hPa | 0 mm | - | - | - |
| 1778092814 | 18.89° C | 62% | 1015 hPa | 0 mm | - | - | - |
| 1778091012 | 25° C | 59% | 1015 hPa | 0 mm | - | - | - |
| 1778089811 | 24.44° C | 59% | 1015 hPa | 0 mm | - | - | - |
| 1778088568 | 23.89° C | 64% | 1016 hPa | 0 mm | - | - | - |
| 1778087367 | 21.67° C | 64% | 1016 hPa | 0 mm | - | - | - |
| 1778081966 | 22.22° C | 83% | 1016 hPa | 0 mm | - | - | - |
| 1778080164 | 22.22° C | 86% | 1017 hPa | 0 mm | - | - | - |
| 1778078963 | 21.11° C | 86% | 1017 hPa | 0 mm | - | - | - |
| 1778077161 | 17.78° C | 86% | 1017 hPa | 0 mm | - | - | - |
| 1778076560 | 20° C | 90% | 1017 hPa | 0 mm | - | - | - |
| 1778075359 | 17.78° C | 90% | 1017 hPa | 0 mm | - | - | - |
| 1778073557 | 14.44° C | 90% | 1017 hPa | 0 mm | - | - | - |
| 1778071755 | 15.56° C | 91% | 1018 hPa | 0 mm | - | - | - |
| 1778070554 | 13.33° C | 91% | 1018 hPa | 0 mm | - | - | - |
| 1778068151 | 11.67° C | 90% | 1018 hPa | 0 mm | - | - | - |
| 1778066950 | 13.33° C | 92% | 1018 hPa | 0 mm | - | - | - |
| 1778065749 | 13.33° C | 91% | 1018 hPa | 0 mm | - | - | - |
| 1778063947 | 14.44° C | 91% | 1018 hPa | 0 mm | - | - | - |
| 1778062145 | 13.33° C | 91% | 1017 hPa | 0 mm | - | - | - |
| 1778060944 | 13.33° C | 90% | 1017 hPa | 0 mm | - | - | - |
| 1778059142 | 13.33° C | 92% | 1017 hPa | 0 mm | - | - | - |
| 1778058541 | 15.56° C | 91% | 1017 hPa | 0 mm | - | - | - |
| 1778057340 | 13.33° C | 91% | 1017 hPa | 0 mm | - | - | - |
| 1778056739 | 15.56° C | 93% | 1017 hPa | 0 mm | - | - | - |
* Rain latest hour (hover to see other rain measurements)
** Current wind speed in m/s (hover to see current wind gust speed)